Tracking 29892 objects as of 21-Nov-2024
HD Live streaming from Space Station
objects crossing your sky now

CZ-3B R/B

Track CZ-3B R/B now!
10-day predictions


NORAD ID: 56565
Int'l Code: 2023-066B
Perigee: 177.8 km
Apogee: 21,886.7 km
Inclination: 28.3 °
Period: 380.8 minutes
Semi major axis: 17403 km
RCS: Unknown
Launch date: May 17, 2023
Source: People's Republic of China (PRC)
Launch site: Xichang Space Center, China (XSC)

Note: This is a ROCKET BODY
Your satellite tracking list
Your tracking list is empty




NASA's NSSDC Master Catalog

Two Line Element Set (TLE):
1 56565U 23066B   24326.06738235  .00111602  54422-6  15870-2 0  9992
2 56565  28.3006 315.9793 6237050 338.1847   3.9561  3.78144235 17753
Source of the keplerian elements: AFSPC